Weather in Sidi bel Abbes

Algeria     35°11′52″N   0°37′26″E
temp.,
°C
wind,
m/s
gust,
m/s
humid.,
%
clouds,
%
prec.,
mm/h
press.,
hPa
HPBL,
m
13 may, thu
thu1301:00+16wsw33330 0.0 101922
04:00+15wsw33420 0.0 101830
07:00+15sw33480 0.0 101850
10:00+21w68370 0.0 10181214
13:00+24w89260 0.0 10161481
16:00+23wnw910270 0.0 10151126
19:00+20wnw69320 0.0 1015616
22:00+17wsw45380 0.0 101694
14 may, fri
fri1401:00+16sw44370 0.0 101654
04:00+15sw33405 0.0 101530
07:00+16sw46435 0.0 1017112
10:00+22wnw79381 0.0 10171173
13:00+25wnw88361 0.0 10161426
16:00+24wnw78344 0.0 10161169
19:00+21wnw45410 0.0 1016589
22:00+17n115610 0.0 101811
15 may, sat
sat1501:00+16sse115831 0.0 101811
04:00+15sse225856 0.0 101711
07:00+17se1153100 0.0 101711
10:00+24se12254 0.0 1017546
13:00+29n12185 0.0 10151184
16:00+32nnw43167 0.0 10141432
19:00+27nnw5425100 0.0 1014530
22:00+23nne1136100 0.0 101611
16 may, sun
sun1601:00+21ese11400 0.0 101511
04:00+20nne01420 0.0 101411
07:00+22se11420 0.0 101411
10:00+28nnw11240 0.0 1014536
13:00+33nnw44185 0.0 10131133
16:00+34nw651682 0.0 10111219
19:00+30nnw44207 0.0 1012521
22:00+25wsw1226100 0.0 101512
17 may, mon
mon1701:00+25sse2226100 0.0 101312
04:00+22nw223093 0.0 101311
07:00+23wsw222821 0.0 101415
10:00+29wnw441739 0.0 1015696
13:00+32nw65175 0.0 10151424
16:00+30nw87230 0.0 10141023
19:00+27wnw45300 0.0 1015517
22:00+22nw22450 0.0 101815